Tucson Davis Monthan, AZ

10:27 PM MST on July 24, 2017 (GMT -0700)
Davis-Monthan Air Force Base

Weather History for KDMA - November, 2013

Change the Weather History Date:

Friday, November 29, 2013

  Actual Average Record
Temperature  
Mean Temperature 60 °F -  
Max Temperature 72 °F 66 °F 87 °F (1999)
Min Temperature 48 °F 40 °F 29 °F (2010)
Degree Days  
Heating Degree Days 5    
Growing Degree Days 10 (Base 50)    
Moisture  
Dew Point 39 °F    
Average Humidity 51    
Maximum Humidity 76    
Minimum Humidity 27    
Precipitation  
Precipitation 0.00 in - - ()
Sea Level Pressure  
Sea Level Pressure 30.08 in    
Wind  
Wind Speed 7 mph (SE)    
Max Wind Speed 13 mph    
Max Gust Speed -    
Visibility 10 miles    
Events      
Averages and records for this station are not official NWS values.
T = Trace of Precipitation, MM = Missing Value Source: NWS Daily Summary

Daily Weather History Graph

Daily Weather History Graph

Search for Another Location

Airport or City:

Trip Planner

Search our weather history database for the weather conditions in past years. The results will help you decide how hot, cold, wet, or windy it might be!

Date:

Astronomy

Nov. 29, 2013 Rise Set
Actual Time 7:05 AM MST 5:18 PM MST
Civil Twilight 6:38 AM MST 5:45 PM MST
Nautical Twilight 6:08 AM MST 6:15 PM MST
Astronomical Twilight 5:38 AM MST 6:45 PM MST
Moon 3:25 AM MST (11/29) 2:55 PM MST (11/29)
Length of Visible Light 11h 06m
Length of Day
10h 13m
Waning Crescent, 13% of the Moon is Illuminated
Nov 29
Waning Crescent
Dec 2
New
Dec 9
First Quarter
Dec 17
Full
Dec 25
Last Quarter

Hourly Weather History & Observations

Time (MST) Temp. Dew Point Humidity Pressure Visibility Wind Dir Wind Speed Gust Speed Precip Events Conditions
12:58 AM 49.3 °F 36.9 °F 62% 30.06 in 10.0 mi SSE 10.4 mph - N/A   Clear
1:58 AM 49.5 °F 36.7 °F 61% 30.04 in 10.0 mi SE 6.9 mph - N/A   Clear
2:58 AM 48.2 °F 36.7 °F 64% 30.06 in 10.0 mi SSE 5.8 mph - N/A   Clear
3:58 AM 51.1 °F 36.0 °F 56% 30.05 in 10.0 mi SE 10.4 mph - N/A   Clear
4:58 AM 49.3 °F 36.5 °F 61% 30.06 in 10.0 mi SE 8.1 mph - N/A   Clear
5:58 AM 49.1 °F 36.1 °F 61% 30.09 in 10.0 mi SSE 10.4 mph - N/A   Clear
6:58 AM 48.0 °F 36.7 °F 65% 30.12 in 10.0 mi SSE 10.4 mph - N/A   Clear
7:58 AM 51.4 °F 36.9 °F 58% 30.12 in 10.0 mi SE 2.3 mph - N/A   Clear
8:58 AM 57.0 °F 37.8 °F 49% 30.13 in 10.0 mi SE 6.9 mph - N/A   Clear
9:58 AM 61.5 °F 39.0 °F 43% 30.14 in 10.0 mi South 4.6 mph - N/A   Clear
10:58 AM 65.1 °F 39.6 °F 39% 30.12 in 10.0 mi South 2.3 mph - N/A   Clear
11:58 AM 69.3 °F 40.3 °F 35% 30.09 in 10.0 mi Calm Calm - N/A   Clear
12:58 PM 70.3 °F 38.3 °F 31% 30.06 in 10.0 mi Calm Calm - N/A   Clear
1:58 PM 71.4 °F 37.2 °F 29% 30.04 in 10.0 mi North 3.5 mph - N/A   Clear
2:58 PM 72.7 °F 36.3 °F 27% 30.02 in 10.0 mi ENE 3.5 mph - N/A   Clear
3:58 PM 72.7 °F 36.3 °F 27% 30.00 in 10.0 mi NE 2.3 mph - N/A   Clear
4:58 PM 70.0 °F 37.4 °F 30% 30.01 in 10.0 mi North 3.5 mph - N/A   Clear
5:58 PM 63.7 °F 42.3 °F 46% 30.05 in 10.0 mi WNW 12.7 mph - N/A   Clear
6:58 PM 61.2 °F 41.7 °F 49% 30.08 in 10.0 mi WNW 10.4 mph - N/A   Clear
7:58 PM 59.0 °F 41.7 °F 53% 30.11 in 10.0 mi South 6.9 mph - N/A   Clear
8:58 PM 55.4 °F 43.0 °F 63% 30.11 in 10.0 mi SE 8.1 mph - N/A   Clear
9:58 PM 53.8 °F 43.2 °F 67% 30.12 in 10.0 mi SSE 4.6 mph - N/A   Clear
10:58 PM 52.5 °F 44.2 °F 73% 30.12 in 10.0 mi SE 5.8 mph - N/A   Clear
11:58 PM 51.3 °F 44.1 °F 76% 30.12 in 10.0 mi SE 8.1 mph - N/A   Clear